Regional Weather Roundup
Issued by NWS Upton, NY

Current Version | Previous Version | Text Only | Print | Product List | Glossary On
Versions: 1 2 3 4 5 6 7 8 9 10 11 12 13 14 15 16 17 18 19 20 21 22 23 24 25 26 27
000
ASUS41 KOKX 231608
RWROKX

REGIONAL WEATHER ROUNDUP
NATIONAL WEATHER SERVICE NEW YORK NY
1100 AM EST THU FEB 23 2017

NOTE: "FAIR" INDICATES FEW OR NO CLOUDS BELOW 12,000 FEET WITH NO
SIGNIFICANT WEATHER AND/OR OBSTRUCTIONS TO VISIBILITY.

NYZ071-072-176-178-NJZ106-104-231700-
NEW YORK CITY METRO AREA

CITY           SKY/WX    TMP DP  RH WIND       PRES   REMARKS
Central Park   CLOUDY    54  49  83 CALM      29.91F
Wall St Helipt NOT AVBL
LaGuardia APRT CLOUDY    55  49  80 SW10      29.89F
Kennedy INTL   FOG       49  49 100 S7        29.91F VSB 1/2
Breezy Point     N/A     43 N/A N/A SE5         N/A
Newark/Liberty CLOUDY    51  48  89 SW8       29.89F FOG
Teterboro      CLOUDY    53  48  83 S8        29.88F
$$

NYZ177-179-078>081-231700-
LONG ISLAND NEW YORK

CITY           SKY/WX    TMP DP  RH WIND       PRES   REMARKS
Jones Beach      N/A     45 N/A N/A SW5         N/A
Matinecock PT  NOT AVBL
Farmingdale    CLOUDY    48  48 100 S3        29.90F FOG
MacArthur/ISP  CLOUDY    50  48  93 S7        29.90F FOG
Shirley        CLOUDY    48  47  96 S8        29.92S
Westhampton    CLOUDY    49  46  90 SW7       29.93F FOG
Southampton      N/A     45  45 100 SW5       29.89F
Bridgehampton  NOT AVBL
East Hampton   CLOUDY    48  46  95 SW7       29.91F FOG
Montauk          N/A     51  48  89 SW8       29.93R
$$

NYZ052-065-067-231700-
HUDSON VALLEY

CITY           SKY/WX    TMP DP  RH WIND       PRES   REMARKS
White Plains   PTSUNNY   50  45  83 S6        29.87F HAZE
Newburgh       NOT AVBL
Montgomery     SUNNY     60  48  64 SW13      29.82F
Poughkeepsie   SUNNY     59  43  55 SW6       29.83F
Albany         PTSUNNY   56  40  55 S14       29.79F
$$

NJZ001-105-106-008-010-013-015-019>022-104-231700-
NEW JERSEY

CITY           SKY/WX    TMP DP  RH WIND       PRES   REMARKS
Newark/Liberty CLOUDY    51  48  89 SW8       29.89F FOG
Teterboro      CLOUDY    53  48  83 S8        29.88F
Caldwell       CLOUDY    53  47  79 SW8       29.88F
Somerville     CLOUDY    49  47  93 CALM      29.89S FOG
Linden         NOT AVBL
Sussex         SUNNY     58  48  69 SW12      29.85F
Andover          N/A     58  47  66 SW9       29.87S
Trenton        CLOUDY    54  53  97 SW6       29.90S FOG
Millville      SUNNY     64  55  72 SW6       29.91F
Atlantic City  SUNNY     66  52  60 SW8       29.91F
Wrightstown    CLOUDY    55  55 100 W10       29.88F
Toms River     MOSUNNY   61  53  75 W13       29.91S
Belmar         CLOUDY    56  53  90 SW9       29.91F
$$

PAZ047>061-062-071-231700-
EASTERN PENNSYLVANIA

CITY           SKY/WX    TMP DP  RH WIND       PRES   REMARKS
Philadelphia   CLOUDY    54  53  97 SW9       29.92S FOG
Allentown      CLOUDY    50  45  83 W6        29.90S HAZE
Scranton       SUNNY     61  47  59 SW10      29.84F
$$

CTZ002-004>006-009-010-012-RIZ004-006-007-MAZ004-011-015-231700-
SOUTHERN NEW ENGLAND
 IN CT

CITY           SKY/WX    TMP DP  RH WIND       PRES   REMARKS
Bradley INTL   MOSUNNY   58  43  57 S9        29.85F
Hartford       SUNNY     58  44  60 VRB7      29.86F
Danbury        SUNNY     58  48  69 S7        29.86F
Wtrbury/Oxford MOSUNNY   57  45  62 SW9       29.88F
Bridgeport     CLOUDY    45  40  82 S3        29.90F
Meriden        SUNNY     55  44  66 S12       29.87F
New Haven      CLOUDY    43  39  86 S7        29.89F
Chester        CLOUDY    55  48  76 SW9       29.89F
Groton         PTSUNNY   50  44  80 SW10      29.91S
Wilimantic     SUNNY     60  43  53 S7        29.87F

 IN RI

CITY           SKY/WX    TMP DP  RH WIND       PRES   REMARKS
Providence     MOSUNNY   57  43  59 S7        29.88F
Block Island   FOG       47  46  97 SW15      29.92  VSB 1/4
Westerly       SUNNY     53  43  68 SW5       29.91F
 IN MA

CITY           SKY/WX    TMP DP  RH WIND       PRES   REMARKS
Boston         MOSUNNY   60  44  55 S12       29.83F
Worcester      SUNNY     58  40  51 SW17G24   29.83F
Westfield      SUNNY     53  40  61 S10       29.84F
Provincetown   SUNNY     50  45  83 S14       29.88F
Nantucket      SUNNY     49  43  80 SW13      29.92F
$$

ANZ330-335-338-340-345-350-353-355-231700-
COASTAL MARINE OBSERVATIONS


STATION/POSITION TIME  SKY/WX   TEMP    WIND        PRES    VSBY  WAVE
                                AIR SEA DIR/SP/G                  HT/PER
                 (UTC)          (F)     (DEG/KT/KT) (MB)    (MI)  (FT/S)
NY HARB ENTRANCE 1450            43 42  200/  6/  8 1013.0          3/11
20 S FIRE ISLAND 1550            45 43  190/  6/  8 1013.0          3/10
GREAT SOUTH BAY  NOT AVBL
23 SSW MONTAUK P 1450            46 44              1013.8          3/10
15 E BARNEGAT LI 1530               43                N/A           4/11
HUDSON CANYON    1450               49              1014.0          4/11
KINGS POINT      1548            42 38              1011.9
EXECUTION ROCKS  NOT AVBL
CENTRAL LI SOUND 1515            40     230/  2/  4   N/A           0
EASTERN LI SOUND NOT AVBL
ROBBINS REEF     1548            47     160/  7/  7 1012.4
$$


>>>>>>>>>>>>>>>>>>>>>>>>>>>> KEY <<<<<<<<<<<<<<<<<<<<<<<<<<<
>                                                          <
>     SKY/WX - Sky Condition/Present Weather               <
>     TMP    - Temperature in Fahrenheit                   <
>     DP     - Dew Point in Fahrenheit                     <
>     RH     - Relative Humidity in Percent                <
>     WIND   - Direction (from) and Speed in MPH           <
>     PRES   - Mean Sea Level Pressure (inches of Hg)      <
>     WCI    - Wind Chill Index                            <
>     VSB    - VISIBILITY IN MILES                         <
>     HX     - HEAT INDEX                                  <
>     TC     - TEMPERATURE IN CELSIUS                      <
>     VRB    - VARIABLE WIND DIRECTION                     <
>                                                          <
>>>>>>>>>>>>>>>>>>>>>>>>>>>> KEY <<<<<<<<<<<<<<<<<<<<<<<<<<<




USA.gov is the U.S. government's official web portal to all federal, state and local government web resources and services.